Miscellaneous Local Product
Issued by NWS Hastings, NE

Home | Current Version | Previous Version | Text Only | Print | Product List | Glossary On
Versions: 1 2 3 4 5 6 7 8 9 10 11 12 13 14 15 16 17 18 19 20 21 22 23 24 25 26 27 28 29 30 31 32 33 34 35 36 37 38 39 40 41 42 43 44 45 46 47 48 49 50
000
AXUS43 KGID 062202
MISGRI

GID CWA HOURLY WEATHER ROUNDUP
NATIONAL WEATHER SERVICE HASTINGS NE
500 PM CDT WED MAY 06 2015

NOTE: "FAIR" INDICATES FEW OR NO CLOUDS BELOW 12,000 FEET WITH NO
SIGNIFICANT WEATHER AND/OR OBSTRUCTIONS TO VISIBILITY.

...SOUTH CENTRAL NEBRASKA...

CITY           SKY/WX    TMP DP  RH WIND       PRES   REMARKS
GRAND ISLAND   TSTM      64  62  93 SE17G25   29.67F FOG
HASTINGS       TSTM      64  62  93 SE18G33   29.64F FOG
KEARNEY        NOT AVBL
ORD            HVY RAIN  64  60  87 SE14G23   29.62F FOG
YORK           PTSUNNY   68  63  83 S22G30    29.70F
AURORA         RAIN      66  64  94 S15G21    29.68S
LEXINGTON      PTSUNNY   70  58  64 S12       29.58F
HOLDREGE       CLOUDY    63  59  88 SE15G22   29.61S
HEBRON         CLOUDY    68  61  77 SE21G26   29.68F

...NEBRASKA PANHANDLE...

CITY           SKY/WX    TMP DP  RH WIND       PRES   REMARKS
CHADRON        PTSUNNY   65  54  67 W13       29.58F
ALLIANCE       CLOUDY    62  52  69 SE14      29.60F
SCOTTSBLUFF    LGT RAIN  58  54  86 N10       29.62S
SIDNEY         LGT RAIN  56  53  90 E6        29.62F FOG

...WESTERN AND NORTH CENTRAL NEBRASKA...

CITY           SKY/WX    TMP DP  RH WIND       PRES   REMARKS
VALENTINE      TSTM      59  56  89 S9        29.62F
AINSWORTH      PTSUNNY   63  58  83 S3        29.61F
ONEILL         CLOUDY    69  60  71 S20G28    29.65F
BROKEN BOW     LGT RAIN  71  58  63 S14G23    29.60F
IMPERIAL       PTSUNNY   61  53  75 S10       29.58F
NORTH PLATTE   PTSUNNY   65  54  67 S12       29.58F
MCCOOK         MOSUNNY   69  53  56 SW14      29.57F

...EASTERN NEBRASKA...

CITY           SKY/WX    TMP DP  RH WIND       PRES   REMARKS
NORFOLK        LGT RAIN  68  62  81 SE18      29.69F
SO SIOUX CITY  CLOUDY    68  62  81 S16       29.76F
TEKAMAH        CLOUDY    71  62  73 S28G37    29.76F
COLUMBUS       PTSUNNY   68  59  73 SE17G30   29.72F
ALBION         CLOUDY    66  61  84 SE14G22   29.67F
OMAHA EPPLEY   CLOUDY    71  61  70 SE21G32   29.78F
OFFUTT AFB     PTSUNNY   72  61  68 SE20G29   29.78F
MILLARD        CLOUDY    70  62  74 SE15G21   29.77F
LINCOLN        CLOUDY    71  62  73 S28G38    29.73F
NEBRASKA CITY  CLOUDY    71  58  65 S18G30    29.80F
BEATRICE       PTSUNNY   70  62  76 SE22G33   29.73F
FALLS CITY     CLOUDY    71  60  68 S26G41    29.81F

...NORTHERN KANSAS...

CITY           SKY/WX    TMP DP  RH WIND       PRES   REMARKS
GOODLAND       PTSUNNY   62  57  83 S17       29.62F
HILL CITY      PTSUNNY   74  54  49 SW13G30   29.59F
NORTON         PTCLDY    70  50  49 SW20G25   29.58S
PHILLIPSBURG   PTSUNNY   70  63  78 E7        29.59F
SMITH CENTER   CLOUDY    61  57  88 E7        29.61F
HAYS           PTSUNNY   79  57  47 SW32G39   29.58S
RUSSELL        TSTM      67  61  81 S13       29.58F
CONCORDIA      LGT RAIN  68  63  84 SE29G41   29.65F
SALINA         PTSUNNY   77  65  66 SE31G40   29.66F
TOPEKA         CLOUDY    72  62  71 SE22G29   29.83F



USA.gov is the U.S. government's official web portal to all federal, state and local government web resources and services.